Location: Unspecified
(28.3162°N, 0.0000°E)
Time: 00:41:58
(UTC+00:00)

Burner II No. 7 - Visible Passes

Search period start: 04 April 2026 00:00
Search period end: 14 April 2026 00:00
Orbit: 755 x 813 km, 98.3° (Epoch: 29 March)

Date Brightness Start Highest point End Pass type
(mag) Time Alt. Az. Time Alt. Az. Time Alt. Az.
4 Apr 8.5 05:00:48 10° SE 05:05:06 27° ENE 05:09:28 10° NNE visible
4 Apr 7.7 18:58:08 10° N 19:03:04 40° WNW 19:07:55 10° SW visible
5 Apr 9.4 04:31:55 10° E 04:34:13 13° ENE 04:36:32 10° NE visible
6 Apr 9.2 19:36:25 10° NNW 19:39:42 17° WNW 19:42:58 10° WSW visible
7 Apr 8.2 05:06:16 10° SE 05:10:48 31° ENE 05:15:25 10° N visible
7 Apr 8.0 19:04:02 10° N 19:08:46 35° WNW 19:13:28 10° SW visible
8 Apr 9.3 04:36:58 10° ESE 04:39:55 15° ENE 04:42:51 10° NNE visible
9 Apr 9.3 19:42:37 10° NW 19:45:23 15° WNW 19:48:09 10° W visible
10 Apr 8.0 05:11:47 10° SE 05:16:31 36° ENE 05:21:19 10° N visible
10 Apr 8.3 19:09:57 10° NNW 19:14:30 30° WNW 19:18:59 10° SW visible
11 Apr 9.2 04:42:11 10° ESE 04:45:35 18° ENE 04:49:01 10° NNE visible
11 Apr 6.7 18:38:15 10° N 18:43:28 64° WNW 18:48:35 10° SSW visible
12 Apr 9.5 19:49:00 10° NW 19:51:04 12° WNW 19:53:07 10° W visible
13 Apr 8.5 19:15:54 10° NNW 19:20:12 26° WNW 19:24:26 10° SW visible
